Theta_e
325 315 314 307 298 294 291 296 303 305 307 310 322 324 322 326 324 318 341 341 352 357 363 365 366 366 365 364 363 361 361 360 359 359 360 360 360 360 360 361 361 362 360 358 357 356 354 353 353
316 316 308 302 294 290 294 301 302 307 311 314 315 326 324 323 331 331 333 346 355 357 363 363 366 365 365 363 362 361 361 360 359 359 360 360 360 359 361 362 362 362 359 358 357 356 354 353 352
323 316 300 296 292 293 297 303 306 309 312 312 312 334 332 330 335 332 343 354 354 356 361 363 365 364 364 362 361 361 361 360 359 359 360 360 360 359 360 361 361 361 358 358 357 355 354 353 352
308 303 303 293 291 297 302 304 305 307 311 312 314 324 336 338 334 346 354 354 352 355 360 365 365 364 363 362 361 361 360 360 359 359 360 360 360 359 359 359 360 361 358 357 357 355 354 353 352
304 297 292 289 293 296 303 306 307 307 308 310 312 320 330 338 346 352 352 352 350 354 360 364 364 363 363 362 362 361 360 360 359 358 360 359 360 360 359 359 359 359 358 356 355 354 355 354 353
296 294 284 290 292 300 302 304 303 303 305 307 309 330 333 343 347 350 352 349 354 355 359 362 364 363 362 362 361 360 360 359 359 358 359 359 359 360 360 359 359 358 358 356 354 354 354 354 353
294 289 285 285 292 296 300 300 301 303 303 305 307 320 334 342 348 352 351 351 355 356 357 360 361 362 362 361 360 359 359 359 358 357 357 358 358 359 359 359 358 358 357 357 356 355 354 353 354
300 294 289 288 291 289 296 298 300 302 304 311 312 313 331 342 349 351 350 353 354 354 356 357 359 359 358 358 360 359 359 358 357 357 357 357 358 358 358 355 357 357 357 357 356 355 354 354 353
303 292 291 292 291 292 294 293 300 305 305 308 311 314 343 348 350 348 349 349 349 351 353 355 356 355 355 356 358 359 359 359 357 357 357 354 350 352 354 354 357 356 357 357 355 354 354 353 353
299 294 294 297 298 294 296 296 299 304 306 307 308 326 345 348 346 344 344 344 346 346 349 353 354 353 353 355 355 354 355 354 353 353 352 349 347 347 351 352 356 356 356 356 355 354 353 353 345
297 297 300 300 302 300 300 302 304 304 303 306 305 335 341 344 343 343 345 345 345 346 348 351 352 352 353 354 352 353 353 352 350 350 348 345 344 345 346 343 349 347 353 347 351 349 347 344 342
292 299 304 303 305 305 303 305 304 304 304 309 308 339 340 340 341 341 344 345 344 344 345 349 350 349 346 352 349 349 349 347 345 346 344 340 338 340 340 342 344 343 345 342 342 341 342 341 340
294 296 299 304 305 305 306 305 304 304 308 310 309 311 338 339 340 343 345 346 344 342 343 345 345 340 345 345 340 342 341 343 343 343 344 340 338 337 339 340 342 342 341 341 338 337 337 337 337
296 298 299 299 299 304 305 305 303 307 308 307 307 304 313 332 334 338 340 344 342 341 339 340 339 340 342 338 337 340 340 341 341 342 345 340 339 338 339 336 340 341 342 341 340 338 337 336 336
298 294 297 298 300 299 300 297 300 307 306 304 305 306 304 307 318 327 327 343 341 340 340 340 343 346 345 339 339 341 341 342 340 342 344 343 337 338 342 338 340 342 342 340 340 340 339 337 336
295 293 288 296 298 301 299 293 301 304 303 303 304 305 306 305 309 317 342 341 341 340 340 343 347 344 345 346 342 342 343 343 342 341 343 344 340 342 346 343 343 346 345 343 342 339 335 334 335
291 287 288 292 298 299 298 295 301 304 303 302 302 302 305 302 306 317 341 342 341 341 340 340 338 333 338 345 349 343 346 343 346 346 344 344 344 348 348 347 344 344 343 342 340 339 337 336 335
286 288 291 291 295 298 297 296 300 303 303 302 301 302 303 303 304 313 337 342 341 341 340 339 337 335 337 345 350 345 348 344 347 348 346 346 347 349 347 345 345 344 341 340 339 335 337 335 333
291 292 290 293 298 296 296 297 299 302 301 300 300 301 302 303 305 307 335 336 339 339 337 336 335 332 338 341 343 345 345 347 350 353 351 349 351 350 347 346 344 343 341 340 337 335 332 330 331
290 289 290 296 298 296 296 296 299 300 303 302 300 301 301 302 304 306 322 330 332 332 331 331 333 333 338 340 342 345 346 346 347 349 350 351 350 350 349 346 342 342 340 338 336 334 329 329 329
291 290 291 292 297 298 294 293 295 300 301 303 302 303 302 303 303 304 306 328 328 329 330 332 332 332 334 334 338 344 346 345 345 344 346 347 349 349 346 345 343 340 340 338 336 332 329 324 327
285 292 294 294 293 286 294 285 292 297 298 300 302 300 302 304 304 304 306 332 333 330 330 332 333 335 336 337 338 340 341 340 341 340 344 344 346 347 345 344 341 340 338 334 333 334 330 328 323
289 292 292 292 290 287 290 285 290 296 296 298 300 301 301 302 303 303 306 334 345 342 337 335 340 343 340 341 343 344 344 340 343 343 342 341 340 342 344 341 339 337 337 335 333 330 327 327 326
296 293 291 289 285 282 288 287 287 291 296 300 301 301 302 302 303 304 310 338 341 344 344 346 345 345 345 345 346 344 343 339 341 338 338 337 336 338 339 339 337 337 335 333 332 332 330 328 327
292 286 280 276 279 280 289 289 289 296 300 302 301 301 302 302 303 304 331 336 337 334 332 337 342 342 340 338 341 342 339 340 338 337 339 334 335 333 333 333 331 330 328 327 327 325 323 323 322
289 287 281 276 279 281 290 286 290 300 302 304 305 304 303 302 302 307 333 336 334 328 330 338 341 340 337 337 338 338 337 337 337 337 336 333 331 328 330 328 327 325 325 323 322 320 319 316 316
291 286 292 284 286 281 285 291 296 299 300 301 301 302 301 301 302 315 331 336 332 334 338 339 338 337 335 337 334 330 328 329 329 330 330 327 327 326 323 322 321 319 318 317 315 313 313 311 311
293 294 285 285 278 277 283 287 287 293 303 310 305 300 300 300 306 316 336 337 339 340 339 337 334 331 330 330 328 325 322 320 319 318 316 314 312 312 312 311 311 311 310 310 309 308 308 306 306
291 287 289 288 287 279 280 283 298 301 305 308 305 304 303 312 325 332 335 337 336 335 333 331 328 325 322 321 320 318 317 316 315 314 311 309 309 309 310 310 310 308 306 305 304 304 304 304 303
295 291 288 281 282 286 283 282 304 305 312 310 313 318 323 326 329 331 332 332 330 327 325 322 320 318 317 316 314 313 313 312 310 308 308 308 307 307 308 309 306 305 304 303 302 302 302 301 300
Wind_Speed
2 3 0 3 3 4 5 10 5 15 5 4 5 7 15 17 14 9 13 28 20 18 13 14 17 18 19 20 19 18 17 17 17 18 18 17 16 15 15 14 13 13 14 14 14 12 11 11 10
2 2 3 1 5 3 8 7 20 15 7 15 4 7 7 9 5 4 5 12 20 20 15 15 19 19 20 20 20 19 19 18 18 18 18 18 17 15 14 14 14 14 14 13 13 11 10 9 9
1 2 4 5 5 12 11 12 19 2 8 7 5 2 7 6 5 7 6 21 20 16 12 15 20 20 20 20 20 18 18 18 18 18 17 17 17 16 14 13 13 13 13 12 11 10 9 8 7
1 4 3 4 10 12 19 7 4 4 12 8 7 3 1 3 12 12 23 23 19 16 14 17 19 20 20 20 20 18 17 16 16 16 16 15 14 14 13 12 11 11 12 11 10 9 8 6 5
2 3 3 5 11 8 13 14 11 13 9 16 5 3 6 3 5 22 19 27 23 15 12 15 18 17 18 18 19 19 18 16 16 16 16 15 13 13 12 11 9 9 9 9 9 8 6 4 3
1 3 2 16 9 19 16 11 7 11 8 20 5 4 5 3 20 17 17 21 21 19 14 14 17 17 17 18 17 18 17 16 16 16 15 14 13 12 11 10 9 8 7 8 8 6 5 5 5
6 4 7 5 11 21 14 3 13 16 12 21 3 6 1 10 16 20 18 18 17 16 14 12 11 13 17 17 17 17 16 16 15 15 14 14 13 12 10 9 9 8 7 7 6 6 6 6 6
5 5 5 8 12 13 5 7 7 11 18 24 6 8 10 20 18 16 15 14 13 13 14 13 11 10 9 10 16 17 16 15 15 14 14 14 13 12 10 9 8 7 7 7 6 5 5 5 6
3 4 13 13 12 10 4 4 5 4 12 14 11 10 15 19 17 15 15 14 11 10 11 13 14 9 12 11 11 14 17 16 15 13 13 10 4 6 8 8 9 9 8 7 6 6 6 6 7
7 9 17 4 11 8 8 6 5 8 14 13 16 6 27 29 24 22 19 17 15 15 13 13 15 13 13 11 12 8 9 6 6 6 7 4 5 5 7 7 10 10 10 10 10 9 9 8 4
6 17 21 5 9 9 14 17 4 9 17 7 10 16 26 27 22 23 20 24 23 17 14 14 14 13 10 8 7 5 4 5 3 5 4 4 3 3 2 3 4 4 9 3 5 6 4 5 4
7 11 18 3 6 10 21 11 15 5 9 13 10 17 20 25 20 18 18 18 19 18 18 17 15 12 6 7 5 5 5 3 3 3 5 4 3 4 4 3 4 4 3 5 4 2 3 5 6
17 14 5 11 13 13 12 19 10 19 13 15 7 8 24 24 24 20 21 19 18 17 15 15 15 13 10 8 4 5 4 4 4 4 5 4 4 5 4 4 4 4 4 4 4 4 4 5 6
4 12 20 14 14 12 22 22 6 23 4 11 6 3 9 20 21 19 15 19 17 15 15 13 8 7 9 7 7 7 6 6 5 5 6 7 5 5 5 5 5 5 6 5 5 5 5 6 5
12 16 15 16 20 16 5 18 31 23 5 11 10 7 5 9 7 17 14 19 20 18 20 18 11 10 8 5 7 7 8 7 6 6 7 9 7 7 6 5 5 7 6 6 5 6 5 3 3
2 4 14 25 12 17 12 28 25 8 8 11 10 7 4 8 10 6 19 21 22 22 21 21 14 13 11 9 6 7 9 8 7 5 5 8 8 6 6 5 4 3 3 4 4 3 2 3 1
4 9 14 13 14 9 18 22 20 8 9 10 8 8 5 4 7 14 15 21 23 24 23 21 17 15 10 12 10 7 11 10 8 7 7 9 8 7 5 4 2 3 4 4 1 2 1 2 1
16 15 11 15 7 16 20 18 11 8 11 10 8 9 7 5 6 17 18 17 19 22 24 23 14 6 7 4 4 6 3 6 7 8 9 10 8 8 5 4 5 2 3 3 1 2 1 0 2
14 14 10 8 7 13 19 21 13 13 6 9 9 9 9 9 8 9 18 18 17 16 16 16 14 9 7 4 3 4 6 3 2 5 10 11 8 6 6 4 3 2 2 3 3 1 1 1 1
17 17 16 14 10 9 16 22 13 10 16 12 10 10 10 6 8 8 17 17 18 20 16 13 11 13 13 11 5 5 3 3 3 0 6 8 8 7 5 5 3 3 3 2 0 2 2 1 2
16 17 13 14 12 11 8 14 8 12 10 13 10 11 9 12 11 10 11 20 19 19 18 17 14 12 7 4 5 0 4 3 4 3 3 5 8 5 5 5 4 4 3 1 1 1 4 1 1
15 13 16 12 13 7 6 11 10 18 15 13 17 11 12 12 7 8 10 15 19 18 16 16 12 9 6 8 10 10 11 7 5 5 3 4 7 5 5 5 5 3 2 1 1 1 2 2 2
13 15 12 14 13 3 14 3 9 10 16 16 17 13 12 11 11 11 10 13 18 20 20 18 18 18 18 14 11 13 13 6 7 5 7 7 7 6 7 5 5 4 1 1 0 0 1 1 1
10 8 14 10 3 8 16 7 6 6 22 25 12 12 13 10 9 10 9 14 16 14 16 19 19 15 13 15 16 14 15 6 5 4 4 6 3 4 6 5 4 5 5 3 3 4 5 4 2
6 1 5 6 7 7 8 8 10 11 10 14 17 12 10 10 10 10 14 13 17 16 13 12 12 9 6 3 5 7 7 3 5 8 10 3 4 4 6 6 7 5 6 6 5 6 6 5 4
11 9 4 6 7 9 9 10 10 20 10 12 19 17 13 12 10 13 16 17 17 14 13 13 11 9 7 5 8 9 7 5 5 7 9 6 6 6 7 8 7 7 6 5 6 4 4 4 5
5 9 10 3 3 3 3 5 4 7 4 8 11 11 11 10 11 13 15 17 16 15 13 16 15 14 13 13 12 11 10 11 11 13 12 8 8 8 9 8 8 8 7 7 6 5 7 6 5
5 4 7 4 4 5 6 13 7 5 5 8 8 10 9 9 11 12 16 19 17 15 14 16 17 17 16 16 14 12 13 14 14 14 13 11 8 8 8 8 7 8 9 9 8 7 7 7 4
4 4 2 5 4 5 8 6 4 3 5 7 4 9 10 14 17 19 17 18 18 17 17 17 17 18 16 15 13 14 14 13 13 11 9 8 8 7 8 7 9 10 9 9 8 7 7 7 6
2 6 8 6 6 1 3 4 6 9 3 3 11 18 19 24 22 21 20 20 18 18 17 17 16 16 16 14 14 13 15 12 13 10 8 7 8 7 8 10 10 10 10 8 9 8 7 7 7
Wind_Direction
296 278 143 40 66 70 241 245 290 268 306 213 82 145 163 154 158 208 209 181 155 150 166 161 163 149 140 135 133 133 131 127 125 124 120 118 116 116 117 118 121 126 129 130 131 133 135 134 137
352 273 45 90 133 200 248 229 253 246 283 293 332 116 98 193 174 293 79 127 147 150 160 160 164 151 145 140 139 140 140 139 138 136 132 129 128 129 129 129 131 135 140 141 137 139 141 144 146
269 214 109 158 185 212 237 201 241 70 272 318 355 217 142 210 176 163 151 135 139 147 154 164 160 154 150 146 145 146 146 145 143 138 136 136 137 139 138 137 141 144 148 149 144 146 150 155 157
93 18 342 182 221 238 233 235 267 14 309 289 117 284 305 232 153 150 142 136 138 143 161 163 160 155 152 150 146 144 145 143 141 138 137 139 140 140 141 144 147 151 152 157 154 155 160 165 176
42 67 228 227 240 249 252 255 274 275 282 279 331 229 198 267 110 135 154 139 143 149 155 153 157 153 150 150 149 146 147 146 144 142 143 146 148 146 147 145 149 154 156 160 159 161 160 161 188
120 118 173 229 231 244 253 248 263 261 266 280 310 113 211 198 134 148 150 143 147 146 151 146 152 154 149 152 153 148 148 148 146 147 149 153 154 148 150 150 153 155 158 161 162 165 168 176 196
155 125 214 211 238 255 242 218 244 264 257 268 211 173 282 183 156 147 147 144 141 143 141 137 147 155 153 154 155 151 149 148 149 152 154 156 159 155 156 158 158 160 159 160 165 169 183 199 214
163 125 228 214 228 258 233 234 241 244 263 261 193 184 171 198 161 138 132 125 129 137 136 140 148 149 147 153 156 152 151 151 153 156 157 157 162 161 161 166 162 166 164 167 177 185 202 226 243
171 188 230 223 207 243 286 243 235 273 259 284 240 185 179 152 143 135 123 130 126 134 139 146 152 148 158 158 163 154 154 155 158 161 161 156 151 157 163 169 170 169 173 173 186 202 216 229 246
187 219 229 177 211 237 262 235 338 326 314 305 307 208 147 152 155 152 153 154 155 156 158 152 152 155 161 163 165 159 158 157 160 156 157 149 151 160 167 180 184 181 187 187 194 205 214 226 234
209 233 230 257 238 232 258 274 279 293 285 281 325 158 145 156 163 162 164 165 171 162 154 153 149 155 156 148 157 157 154 160 136 144 147 147 160 189 176 180 192 191 200 198 207 216 210 221 235
259 239 239 220 250 235 257 291 267 239 265 281 315 172 156 156 168 171 164 162 157 164 159 154 146 142 134 146 150 146 152 143 145 163 163 163 180 187 194 198 195 196 203 200 221 231 230 236 237
229 238 260 240 253 269 271 264 285 270 271 281 310 283 168 169 173 177 174 167 155 157 152 150 150 147 138 147 138 138 147 154 171 174 184 177 192 199 188 205 187 200 200 204 210 213 221 236 235
235 214 246 246 252 244 250 271 283 262 273 282 269 236 236 177 178 173 168 170 158 137 137 130 124 120 137 144 156 167 165 170 182 186 197 192 194 211 195 185 205 207 212 201 209 202 213 233 220
269 279 270 250 238 247 253 268 242 255 256 268 266 209 218 229 199 172 152 165 144 140 138 136 119 123 121 143 178 177 181 167 189 195 197 198 197 207 208 187 206 212 206 200 209 213 221 233 265
304 240 244 249 230 238 188 250 256 253 206 252 259 255 198 200 203 97 129 133 139 140 143 146 150 156 160 139 208 187 187 172 183 187 189 206 203 200 221 205 213 176 180 217 212 213 220 227 212
246 246 235 261 222 222 204 247 254 237 202 231 250 266 253 202 149 105 128 138 144 144 149 158 162 171 190 159 185 203 214 175 170 181 186 207 205 190 201 184 160 89 82 83 129 219 73 22 357
220 234 249 245 209 222 238 244 241 233 196 214 236 249 237 215 226 125 139 145 150 154 161 162 163 151 156 163 162 190 220 211 183 190 198 192 203 189 187 159 160 122 96 110 110 104 54 101 277
254 267 257 253 220 211 229 239 246 226 220 209 217 233 241 221 199 132 148 151 146 151 156 170 154 162 164 167 159 182 184 173 161 174 196 183 185 170 159 153 112 113 120 124 127 128 136 291 42
238 254 267 275 263 222 234 237 228 218 227 219 202 222 224 227 202 134 144 150 159 162 166 163 178 168 183 195 171 151 125 107 48 91 148 159 148 151 154 144 150 112 106 87 47 148 287 279 313
233 238 243 254 272 291 236 249 222 235 232 213 220 211 207 206 217 137 153 161 164 164 169 175 186 193 200 184 108 79 57 46 91 299 224 177 136 152 154 152 129 145 135 226 32 201 181 223 328
243 245 259 263 246 236 177 249 211 218 209 211 216 209 213 219 193 156 179 152 162 172 169 167 168 176 219 214 155 182 205 193 182 191 167 205 129 150 135 131 137 109 83 76 335 153 169 156 247
261 226 231 256 263 262 267 276 246 193 213 217 217 208 201 204 177 165 189 148 164 159 168 177 179 186 208 201 201 204 197 186 168 172 157 118 84 108 124 131 116 126 168 103 204 68 226 192 234
237 300 235 244 228 234 235 198 270 192 201 217 213 206 190 186 175 183 171 142 148 158 156 160 177 177 179 186 182 208 200 171 156 114 98 86 100 81 75 86 91 70 38 13 21 34 27 348 335
215 102 185 228 197 227 188 211 244 264 223 201 203 199 193 171 168 159 152 150 144 152 156 142 148 141 152 122 131 107 117 113 76 129 114 165 90 75 56 63 57 56 58 47 57 48 41 23 13
215 186 171 202 152 220 163 204 237 232 247 224 194 189 187 172 168 159 159 158 149 144 143 138 137 114 86 110 82 68 77 123 164 98 102 99 85 72 62 61 60 55 53 46 49 53 42 21 24
181 188 200 318 187 91 202 228 290 253 255 219 190 165 185 172 152 149 156 147 140 137 140 132 117 97 90 87 81 68 69 79 93 89 79 77 72 68 57 54 58 49 43 37 37 36 28 29 21
183 152 152 260 196 161 184 214 227 204 211 271 191 183 180 152 132 131 131 132 126 116 112 103 100 101 96 91 91 86 77 71 71 75 76 74 72 75 74 62 57 48 43 34 40 40 20 28 7
152 133 166 200 257 155 165 243 326 319 247 220 260 188 134 114 117 122 121 119 118 109 105 104 100 97 91 90 89 90 81 71 74 74 72 75 77 67 67 64 62 59 47 36 38 20 13 3 352
141 159 190 137 214 284 173 254 312 251 151 212 103 118 118 117 119 121 113 113 108 103 104 97 94 96 94 96 91 83 87 82 78 72 69 61 62 51 54 69 65 58 46 33 30 11 1 354 350